ONEWEB-0155

Last updated on April 25, 2021, 12:02 a.m. UTC

1 48057U 21025R   21114.58336806 -.01069103  00000-0 -39232-1 0  9994
2 48057  87.4242 339.3169 0011045 148.7515 293.1442 15.30720372  1780
UTC
Height (km)
Latitude
Longitude
Inclination
Orbital Period
UTC large
Height (km)
Speed (km/s)
/
Latitude / Longitude
Inclination (degrees)
Orbital Period (minutes)
Azimuth
Elevation
Range (km)
Doppler Factor
iOS Compass Heading
iOS Angle

Next 30 passes for location: Hong Kong

Rise time Rise Azimuth (degrees) Set time Set Azimuth (degrees) Duration Max altitude (degrees)

No matching passes for this satellites